EW7556 Weather Reports


time (UTC)temp
F
wind
direction
speed
knots
gust
knots
rain 1hr
in
rain 24hr
in
rain mn
in
humidity
%
barometer
mb
20260504214557 63 250 3.5 10.4 0.00 0.00 0.00 70 1010.8
20260504213103 62 220 4.3 11.3 0.00 0.00 0.00 69 1010.9
20260504211505 63 204 4.3 8.7 0.00 0.00 0.00 68 1010.9
20260504210113 63 238 4.3 10.4 0.00 0.00 0.00 68 1010.9
20260504204603 64 188 4.3 9.6 0.00 0.00 0.00 67 1010.8
20260504203103 65 236 1.7 9.6 0.00 0.00 0.00 64 1010.9
20260504201502 65 202 1.7 6.1 0.00 0.00 0.00 65 1010.8
20260504200110 65 185 3.5 6.1 0.00 0.00 0.00 64 1010.9
20260504194557 65 191 2.6 6.1 0.00 0.00 0.00 64 1010.9
20260504193100 65 248 1.7 6.1 0.00 0.00 0.00 61 1010.9
20260504191626 70 240 3.5 7.8 0.00 0.00 0.00 51 1010.8
20260504184604 72 208 2.6 4.3 0.00 0.00 0.00 48 1010.6
20260504183002 72 191 0.9 5.2 0.00 0.00 0.00 50 1010.8
20260504181503 71 238 1.7 4.3 0.00 0.00 0.00 50 1011.0
20260504180111 70 222 3.5 6.1 0.00 0.00 0.00 49 1010.9
20260504174558 71 258 0.9 6.1 0.00 0.00 0.00 52 1010.9
20260504173101 70 225 0.9 3.5 0.00 0.00 0.00 52 1010.9
20260504171508 70 247 1.7 4.3 0.00 0.00 0.00 50 1011.0
20260504170115 70 247 1.7 7.0 0.00 0.00 0.00 50 1011.0
20260504160112 71 230 0.0 3.5 0.00 0.00 0.00 49 1011.0
20260504150104 67 200 0.0 1.7 0.00 0.00 0.00 50 1010.5
20260504120124 44 200 0.0 1.7 0.00 0.00 0.00 88 1009.8
20260504081543 59 172 1.7 3.5 0.00 0.00 0.00 56 1009.1
20260504060112 51 197 0.0 0.0 0.00 0.00 0.00 82 1009.8
20260504050110 56 197 0.0 1.7 0.00 0.00 0.00 74 1009.8
20260504044555 57 197 0.0 1.7 0.00 0.00 0.00 70 1009.8
20260504043114 59 242 0.0 1.7 0.00 0.00 0.00 63 1009.7
20260504041602 59 242 0.0 0.9 0.00 0.00 0.00 65 1009.6
20260504040114 61 242 0.0 1.7 0.00 0.00 0.00 67 1009.5
20260504034558 63 242 0.0 0.0 0.00 0.00 0.00 62 1009.4
20260504033125 65 242 0.0 0.9 0.00 0.00 0.00 58 1009.3
20260504031506 68 242 0.0 0.0 0.00 0.00 0.00 53 1009.3
20260504030119 71 242 0.0 0.9 0.00 0.00 0.00 48 1009.3
20260504024557 74 242 0.0 0.9 0.00 0.00 0.00 41 1009.4
20260504023100 78 242 0.0 0.9 0.00 0.00 0.00 35 1009.5
20260504021603 78 242 0.0 2.6 0.00 0.00 0.00 32 1009.7
20260504020108 79 242 0.0 3.5 0.00 0.00 0.00 31 1009.8
20260504014547 78 199 0.0 1.7 0.00 0.00 0.00 31 1010.0
20260504013054 78 215 0.0 2.6 0.00 0.00 0.00 33 1010.1
20260504011556 78 185 0.9 3.5 0.00 0.00 0.00 33 1010.3
20260504010100 78 203 0.0 3.5 0.00 0.00 0.00 30 1010.5
20260504004545 79 333 0.0 3.5 0.00 0.00 0.00 30 1010.7
20260504003045 79 210 0.0 2.6 0.00 0.00 0.00 31 1010.7
20260504001557 79 238 0.0 4.3 0.00 0.00 0.00 32 1010.9
20260504000059 78 218 1.7 4.3 0.00 0.00 0.00 30 1011.0
20260503234546 79 233 0.9 3.5 0.00 0.00 0.00 31 1011.1
20260503233052 79 217 0.9 3.5 0.00 0.00 0.00 35 1011.3
20260503231553 78 231 0.0 3.5 0.00 0.00 0.00 34 1011.4
20260503230111 77 245 0.9 4.3 0.00 0.00 0.00 34 1011.6
20260503224544 77 238 1.7 5.2 0.00 0.00 0.00 40 1011.8
20260503223101 77 229 0.0 3.5 0.00 0.00 0.00 39 1012.1
20260503221553 77 333 0.0 2.6 0.00 0.00 0.00 44 1012.3
20260503220056 76 285 0.0 2.6 0.00 0.00 0.00 42 1012.5